Location: Marne
(34.0056°N, 117.9064°W)
Time: 01:09:53
(UTC+00:00)

Cosmos 2333 - Pass Details

Date: 18 January 2020
Orbit: 830 x 865 km, 70.9° (Epoch: 19 February)

Event Time Altitude Azimuth Distance (km) Brightness Sun altitude
Rises 01:57:33 0° 339° (NNW) 3,431 7.4 -10.6°
Reaches altitude 10° 02:00:01 10° 341° (NNW) 2,486 6.7 -11.0°
Maximum altitude 02:05:45 83° 69° (ENE) 857 4.2 -12.2°
Drops below altitude 10° 02:11:23 10° 158° (SSE) 2,448 6.5 -13.3°
Sets 02:13:48 0° 159° (SSE) 3,374 7.3 -13.8°
